Regional Weather Roundup
Issued by NWS

Home | Current Version | Previous Version | Graphics & Text | Print | Product List | Glossary On
Versions: 1 2 3 4 5 6 7 8 9 10 11 12 13 14 15 16 17 18 19 20 21 22 23 24 25 26 27 28 29 30 31 32 33 34 35 36 37 38 39 40 41 42 43 44 45 46 47 48 49 50
000
ASUS43 KLMK 290710
RWRKY
KENTUCKY REGIONAL WEATHER ROUNDUP
NATIONAL WEATHER SERVICE LOUISVILLE KY
300 AM EDT SUN MAR 29 2015

NOTE "FAIR" INDICATES FEW OR NO CLOUDS BELOW 12,000 FEET
WITH NO SIGNIFICANT WEATHER AND/OR OBSTRUCTIONS TO VISIBILITY.

KYZ001>023-026-027-061>063-070>075-290800-
WESTERN AND SOUTH CENTRAL KENTUCKY

CITY           SKY/WX    TMP DP  RH WIND       PRES   REMARKS
PADUCAH        FAIR      30  20  66 SE6       30.32S WCI  24
HENDERSON      CLEAR     14  14 100 CALM      30.34F
OWENSBORO      CLEAR     28  24  85 CALM      30.35F
HOPKINSVILLE   CLEAR     30  17  59 E5        30.33F WCI  25
BOWLING GREEN  CLEAR     27  18  69 CALM      30.37R
GLASGOW        CLEAR     25  19  79 CALM      30.35S
$$

KYZ024-025-028>034-038-045-046-053-290800-
NORTH CENTRAL KENTUCKY

CITY           SKY/WX    TMP DP  RH WIND       PRES   REMARKS
LOUISVILLE/SDF CLEAR     32  14  47 CALM      30.36S
LOUISVILLE/LOU CLEAR     32  13  45 CALM      30.36S
FORT KNOX      CLEAR     26  16  65 CALM      30.33S
$$

KYZ035>037-039>044-047>052-055>060-089>105-290800-
NORTHEAST KENTUCKY

CITY           SKY/WX    TMP DP  RH WIND       PRES   REMARKS
LEXINGTON      CLEAR     26  13  57 E6        30.36R WCI  19
COVINGTON      CLEAR     25  15  66 E3        30.35S
FRANKFORT      CLEAR     22  15  75 CALM      30.35S
$$

KYZ054-064>069-076>088-106>120-290800-
SOUTHEAST KENTUCKY

CITY           SKY/WX    TMP DP  RH WIND       PRES   REMARKS
JACKSON        CLEAR     26   8  46 CALM      30.34R
LONDON         CLEAR     25  17  72 CALM      30.33F
SOMERSET       CLEAR     25  19  80 CALM      30.37S
MIDDLESBORO    CLEAR     25  20  83 CALM      30.36R
MONTICELLO     SUNNY     19  17  92 CALM      30.38R
$$



USA.gov is the U.S. government's official web portal to all federal, state and local government web resources and services.